Showing default

AETHER-2, 58299

Orbit data source: Space-Track

AETHER-2, 58299 is a payload satellite owned by Kepler Comms (CA) in SSO that was launched on Sat, 11 Nov 2023 UTC via an FALCON 9 launch vehicle from the Air Force Western Test Range (AFWTR). Payload-class satellites include a variety of spacecraft equipped with specific instruments for various scientific and technological missions. These include communications satellites like Starlink; space stations such as the ISS; scientific satellites like the Hubble; Earth observation satellites from companies like Planet Labs, Umbra, and HawkEye 360; GPS; miniature CubeSats for education and research; and military/defense satellites.

Loading next visibility...
Identifier
58299, 2023-174AV
Orbit
SSO
Country
Flag of CACA
Related business
Manufacturer
KEPLER/UTIAS
Mission
Operational Commercial Communications
Bus & Motor
CUBESAT 6U, Unknown motor
Mass
15 kg wet, 15 kg dry
Launch date (UTC)
2023-11-11 (2 years ago)
Launch vehicle
FALCON 9
Launch site
Air Force Western Test Range (AFWTR)
Object type
Payload
Rocket body
Debris
Shape & HBR
Box + 2 Pan, 0.3 m
Radar Cross Section
0.109 m², Large (>1 m²)

Expand to show TLE details & history
Last TLE update: 14 hours ago

TLE from 14 hours ago
0 AETHER-2
1 58299U 23174AV  25289.16865125  .00008316  00000-0  28436-3 0  9994
2 58299  97.4111   7.4308 0006584 306.6204  53.4431 15.30504608107857
Epoch: 2025-10-16T04:02Z
TLE epoch observation values (Epoch: 2025-10-16T04:02:51.468Z)
Latitude
0.00003°
Longitude
-78.2159°
Altitude
474.724 km
Speed
7.63 km/s
True Right ascension
00h 29m 43s
True Declination
0° 00' 00"
Sunlit
Object was in full shadow at epoch
Visualization orbit readout
Latitude
Unknown
Longitude
Unknown
Altitude
Unknown
Speed
Unknown
Apparent Right ascension
Unknown
Apparent Declination
Unknown
Sunlit
N/A
Visualization observer readout
Local Sidereal Time
12:47:02
Azimuth
Unknown
Elevation
Unknown
Doppler factor
Unknown
Orbital elements
Apogee altitude
475.767 km
Perigee altitude
466.748 km
Semi-major axis
6,849.395 km
Eccentricity
0.00066
Inclination
97.4111°
RAAN
7.4308°
Arg. of periapsis
306.6204°
True anomaly
53.50373°
Mean anomaly
53.4431°
Eccentric anomaly
53.47341°
Mean motion
3.82882 °/min
Orbital period
94.02 mins
BSTAR
0.00028436
Loading maneuver chart data...
Computing Atmospheric mass density...

Documentation

Showing up to 5 results
|